Showing default

METEOR 2-1, 8026

Orbit data source: Space-Track

METEOR 2-1, 8026 is a Commonwealth of Independent States-origin payload satellite in LEO that was launched on Fri, 11 Jul 1975 UTC via a VOSTOK 8A92M launch vehicle from the Plesetsk Missile And Space Complex (PKMTR). Payload-class satellites include a variety of spacecraft equipped with specific instruments for various scientific and technological missions. These include communications satellites like Starlink; space stations such as the ISS; scientific satellites like the Hubble; Earth observation satellites from companies like Planet Labs, Umbra, and HawkEye 360; GPS; miniature CubeSats for education and research; and military/defense satellites.

Loading next visibility...
Identifier
8026, 1975-064A
Orbit
LEO
Country
Flag of CISCIS
Related business
Manufacturer
VNIIEM
Mission
Spacecraft
Bus & Motor
METEOR-2, Unknown motor
Mass
~1,500 kg wet, ~1,500 kg dry
Launch date (UTC)
1975-07-11 (51 years ago)
Launch vehicle
VOSTOK 8A92M
Launch site
Plesetsk Missile And Space Complex (PKMTR)
Object type
Payload
Rocket body
Debris
Shape & HBR
Unknown
Radar Cross Section
Large (>1 m²)

Expand to show TLE details & history
Last TLE update: 2 days ago

TLE from 2 days ago
0 METEOR 2-1
1  8026U 75064A   26171.31772135  .00000130  00000-0  65301-4 0  9997
2  8026  81.2792  20.2252 0021330 207.8613 152.1418 14.10813363619789
Epoch: 2026-06-20T07:37Z
TLE epoch observation values (Epoch: 2026-06-20T07:37:31.124Z)
Latitude
-0.00003°
Longitude
-2.68856°
Altitude
873.144 km
Speed
7.409 km/s
True Right ascension
01h 20m 54s
True Declination
0° 00' 00"
Sunlit
Object was in daylight at epoch
Visualization orbit readout
Latitude
Unknown
Longitude
Unknown
Altitude
Unknown
Speed
Unknown
Apparent Right ascension
Unknown
Apparent Declination
Unknown
Sunlit
N/A
Visualization observer readout
Local Sidereal Time
23:07:51
Azimuth
Unknown
Elevation
Unknown
Doppler factor
Unknown
Orbital elements
Apogee altitude
869.187 km
Perigee altitude
838.335 km
Semi-major axis
7,231.898 km
Eccentricity
0.00213
Inclination
81.2792°
RAAN
20.2252°
Arg. of periapsis
207.8613°
True anomaly
152.25575°
Mean anomaly
152.1418°
Eccentric anomaly
152.1988°
Mean motion
3.52911 °/min
Orbital period
102.01 mins
BSTAR
0.000065301
Loading maneuver chart data...
Computing Atmospheric mass density...
Loading historical data...
Loading historical data...
Loading historical data...
Loading historical data...
Loading historical data...
Loading historical data...
Loading historical data...
Other satellites on launch #64 in the year 1975 (1975-07-11 UTC)

Documentation

Showing up to 5 results
|